Погода в Октябрьском

Россия / Ярославская область     57°59′07″N   39°06′36″E
темп.,
°C
ветер,
м/с
пор.,
м/с
влажн.,
%
обл.,
%
осадки,
мм/ч
давл.,
гПа
погр.,
м
14 мая, пт
пт1400:00+11ю389747 0.1 1016208
03:00+9ю3895100 0.1 1017241
06:00+10ю28944 0.0 1018286
09:00+14ю367350 0.0 1018715
12:00+18ю4654100 0.0 10181667
15:00+19ююв455541 0.0 10171563
18:00+18юв477264 0.4 1015491
21:00+14ююв41095100 2.6 1015372
15 мая, сб
сб1500:00+13ююв41396100 0.3 1015504
03:00+13вюв31198100 1.4 1013359
06:00+14вюв41097100 0.1 1012372
09:00+18ююв4984100 0.2 1011565
12:00+23ююв596099 0.2 10101455
15:00+21ю3774100 1.7 1008963
18:00+17ююв41093100 5.1 1007445
21:00+15ююв37967 7.8 1007131
16 мая, вс
вс1600:00+13ю310945 0.4 1008210
03:00+12ю310960 0.4 1008239
06:00+13ю4119511 0.0 1009419
09:00+16ююз587942 0.0 1009858
12:00+19ююз686597 0.2 10091564
15:00+17юз588113 1.5 10101039
18:00+18юз49783 1.1 10101081
21:00+14ююз310955 1.2 1010284
17 мая, пн
пн1700:00+13ююз310975 0.2 1012264
03:00+12ююз399832 0.2 1013209
06:00+13ююз27944 0.0 1014201
09:00+18юз36754 0.0 1014681
12:00+22юз345723 0.0 10151275
15:00+23ююз234966 0.0 10141662
18:00+22юв3565100 0.0 1013308
21:00+16вюв348494 0.0 101365
18 мая, вт
вт1800:00+15вюв3118878 0.0 1013225
03:00+14вюв4119177 0.1 1012248
06:00+15вюв4119127 0.0 1011279
09:00+21юв5106549 0.0 1010487
12:00+25юв61052100 0.0 10091035
15:00+27ююв6104875 0.0 10091465
18:00+24ююв4105575 0.0 1008888
21:00+19юв41477100 0.0 1008401